[[{"header":{"parameterUnit":"m.s-1","parameterCategory":1,"la1":30.2991,"la2":30.254,"lo1":-89.0895,"lo2":-89.0444,"dy":0.0017,"dx":0.0017,"nx":28,"ny":28,"refTime":"2025-06-02T03:00:00:Z","depth":0,"parameterNumber":2,"parameterNumberName":"U-component_of_WINDS"},"data":[0,0,0,0,0,0,0,0,0,0,0,0,0,0,0,0,0,0,0,0,0,0,0,0,0,0,0,0,0,0,0,0,0,0,0,0,0,0,0,0,0,0,0,0,0,0,0,0,0,0,0,0,0,0,0,0,0,0,-1.289,-1.289,0,-1.2934,-1.2934,-1.2935,-1.2914,-1.2912,-1.2911,-1.291,-1.2957,-1.2959,-1.2961,0,0,0,0,0,0,0,0,0,0,0,0,0,-1.2789,-1.2791,-1.289,-1.289,-1.2891,-1.2934,-1.2934,-1.2935,-1.2914,-1.2912,-1.2911,-1.291,-1.2956,-1.2959,-1.2961,0,0,0,0,0,0,0,0,0,0,0,0,0,-1.2833,-1.2791,-1.289,-1.2885,-1.2885,-1.2934,-1.2935,-1.2935,-1.2914,-1.2912,-1.2911,-1.2909,-1.2955,-1.2958,-1.2962,-1.3017,0,0,-1.2972,-1.2974,0,0,0,0,0,0,0,0,-1.283,-1.2837,-1.2885,-1.2886,-1.2886,-1.2916,-1.2916,-1.2963,-1.2915,-1.2903,-1.291,-1.2908,-1.2945,-1.2949,-1.2961,-1.3019,-1.3021,-1.2972,-1.2975,-1.2976,-1.2977,0,0,0,0,0,0,0,-1.2827,-1.2835,-1.2907,-1.2886,-1.2886,-1.2882,-1.2886,-1.2925,-1.2933,-1.2904,-1.2903,-1.2908,-1.2944,-1.2958,-1.2962,-1.3022,-1.2972,-1.2975,-1.2978,-1.2979,-1.313,-1.3132,0,0,0,0,0,0,-1.2824,-1.2832,-1.2906,-1.2909,-1.2853,-1.2885,-1.289,-1.2908,-1.2933,-1.2935,-1.291,-1.2907,-1.2953,-1.2958,-1.2963,-1.3031,-1.2976,-1.2979,-1.2981,-1.3128,-1.313,-1.3132,0,0,0,0,0,0,-1.2822,-1.2831,-1.2904,-1.287,-1.2879,-1.2889,-1.291,-1.291,-1.2923,-1.2937,-1.2938,-1.2921,-1.2951,-1.2959,-1.3004,-1.3032,-1.2981,-1.2984,-1.3126,-1.3129,-1.3131,-1.3166,0,0,0,0,0,0,-1.2819,-1.283,-1.2851,-1.2871,-1.2881,-1.2944,-1.2911,-1.2912,-1.2929,-1.2926,-1.2948,-1.295,-1.2951,-1.2999,-1.3008,-1.3036,-1.2987,-1.3123,-1.3127,-1.313,-1.3162,-1.317,-1.3176,0,0,0,0,0,-1.2816,-1.2859,-1.2852,-1.2861,-1.2907,-1.2945,-1.2951,-1.2951,-1.2931,-1.2953,-1.2962,-1.2949,-1.3028,-1.3004,-1.3013,-1.3043,-1.3121,-1.3126,-1.313,-1.3159,-1.3168,-1.3176,0,0,0,0,0,0,-1.2842,-1.2861,-1.2854,-1.2904,-1.2923,-1.2941,-1.2968,-1.296,-1.2985,-1.2981,-1.298,-1.2985,-1.3032,-1.3042,-1.3016,-1.3099,-1.3072,-1.3078,-1.3091,-1.3099,-1.3106,-1.3103,-1.2989,0,0,0,0,0,-1.2854,-1.2883,-1.2898,-1.2941,-1.2951,-1.2958,-1.2975,-1.2973,-1.2993,-1.3001,-1.3013,-1.3033,-1.3062,-1.3081,-1.3109,-1.3164,-1.3169,-1.3189,-1.3196,-1.3201,-1.3207,-1.3239,-1.3248,-1.3147,-1.3147,-1.3147,0,0,-1.2878,-1.2892,-1.2911,-1.2947,-1.2961,-1.2993,-1.2965,-1.2999,-1.3022,-1.3006,-1.305,-1.306,-1.3082,-1.3133,-1.3156,-1.3143,-1.3237,-1.3207,-1.3211,-1.3214,-1.3244,-1.3254,-1.3262,-1.315,-1.3149,-1.3149,0,0,-1.2939,-1.2952,-1.299,-1.3005,-1.3027,-1.3032,-1.3041,-1.3061,-1.3067,-1.3111,-1.31,-1.3128,-1.3178,-1.3195,-1.321,-1.3279,-1.3269,-1.3288,-1.3324,-1.3354,-1.3362,-1.3369,-1.3395,-1.3404,-1.3293,-1.3293,-1.3294,0,-1.2966,-1.3012,-1.301,-1.3045,-1.3062,-1.3049,-1.3089,-1.3104,-1.3134,-1.3146,-1.3131,-1.3195,-1.3208,-1.3264,-1.3281,-1.3293,-1.3305,-1.3285,-1.3361,-1.3368,-1.3375,-1.3399,-1.3409,-1.3296,-1.3295,-1.3295,-1.3295,0,-1.3045,-1.3078,-1.3106,-1.3136,-1.3156,-1.3193,-1.3198,-1.3218,-1.3215,-1.3222,-1.3268,-1.3284,-1.3316,-1.3329,-1.3326,-1.3384,-1.3376,-1.3361,-1.3333,-1.3387,-1.341,-1.3419,-1.3299,-1.3298,-1.3297,-1.3297,0,0,-1.3123,-1.3152,-1.3163,-1.3177,-1.3201,-1.3226,-1.3264,-1.3294,-1.3313,-1.3334,-1.3366,-1.341,-1.3396,-1.3414,-1.3413,-1.344,-1.3495,-1.3422,-1.3422,-1.3435,-1.3562,-1.3574,-1.3585,-1.3488,-1.349,-1.3491,-1.3561,0,-1.3186,-1.325,-1.3251,-1.331,-1.3341,-1.333,-1.3362,-1.3381,-1.3389,-1.3416,-1.3425,-1.3456,-1.3436,-1.3446,-1.3472,-1.3482,-1.352,-1.3477,-1.3519,-1.352,-1.3514,-1.3596,-1.3608,-1.3673,-1.357,-1.3571,-1.3572,0,-1.3267,-1.3292,-1.3355,-1.3377,-1.3389,-1.3418,-1.3448,-1.3474,-1.3496,-1.3499,-1.3519,-1.3515,-1.3554,-1.3525,-1.3579,-1.355,-1.3568,-1.3575,-1.3578,-1.3582,-1.355,-1.3604,-1.3693,-1.3703,-1.3586,-1.3585,-1.3584,0,-1.3319,-1.3368,-1.3412,-1.3425,-1.345,-1.3472,-1.3483,-1.3504,-1.3523,-1.3548,-1.3561,-1.3591,-1.3607,-1.3631,-1.3635,-1.3613,-1.369,-1.3661,-1.3695,-1.3695,-1.3712,-1.3711,-1.3807,-1.3722,-1.3722,-1.3722,-1.3722,0,-1.3389,-1.3429,-1.3436,-1.3463,-1.3508,-1.3508,-1.3552,-1.3562,-1.3581,-1.3611,-1.3603,-1.3631,-1.3634,-1.3664,-1.3668,-1.3713,-1.372,-1.3725,-1.3726,-1.3726,-1.3726,-1.3738,-1.3734,-1.3724,-1.3724,-1.3723,-1.3723,0,-1.3454,-1.3461,-1.3509,-1.353,-1.3536,-1.3568,-1.3586,-1.3613,-1.362,-1.3658,-1.3667,-1.3678,-1.3713,-1.3719,-1.376,-1.3763,-1.3817,-1.3813,-1.381,-1.381,-1.3844,-1.3841,-1.395,-1.3966,-1.387,-1.3871,-1.3872,0,-1.3499,-1.3529,-1.3554,-1.3573,-1.3586,-1.3617,-1.3637,-1.3639,-1.366,-1.3689,-1.3712,-1.3746,-1.3773,-1.383,-1.3842,-1.3874,-1.3871,-1.3907,-1.3875,-1.3876,-1.3873,-1.3871,-1.3875,-1.3913,-1.3914,-1.3915,-1.3916,0,-1.3579,-1.3581,-1.3609,-1.3639,-1.3663,-1.3687,-1.3709,-1.3726,-1.3731,-1.3755,-1.3791,-1.3812,-1.3854,-1.3889,-1.392,-1.3933,-1.3926,-1.3926,-1.3935,-1.3937,-1.3934,-1.3937,-1.3827,-1.3923,-1.3922,-1.3922,-1.3921,-1.3921,-1.3636,-1.3662,-1.3684,-1.3717,-1.3734,-1.3756,-1.3782,-1.3793,-1.3822,-1.3857,-1.3857,-1.3896,-1.3919,-1.3961,-1.3976,-1.4008,-1.3996,-1.401,-1.4014,-1.4017,-1.4021,-1.3929,-1.4013,-1.4013,-1.4013,-1.4013,-1.4013,0,-1.3715,-1.3729,-1.3759,-1.3791,-1.3817,-1.3808,-1.3833,-1.3855,-1.389,-1.3912,-1.3939,-1.3981,-1.4014,-1.403,-1.4063,-1.4086,-1.4083,-1.4094,-1.4093,-1.4097,-1.4029,-1.4018,-1.4096,-1.4096,-1.4096,-1.4096,-1.4096,-1.4096,-1.376,-1.3805,-1.381,-1.3865,-1.3878,-1.3917,-1.3932,-1.3953,-1.397,-1.4017,-1.4045,-1.4055,-1.4075,-1.411,-1.4141,-1.4145,-1.4158,-1.4171,-1.4173,-1.411,-1.4101,-1.4093,-1.4083,-1.4173,-1.4173,-1.4239,-1.4239,-1.424]},{"header":{"parameterUnit":"m.s-1","parameterCategory":1,"la1":30.2991,"la2":30.254,"lo1":-89.0895,"lo2":-89.0444,"dy":0.0017,"dx":0.0017,"nx":28,"ny":28,"refTime":"2025-06-02T03:00:00:Z","depth":0,"parameterNumber":3,"parameterNumberName":"V-component_of_WINDS"},"data":[0,0,0,0,0,0,0,0,0,0,0,0,0,0,0,0,0,0,0,0,0,0,0,0,0,0,0,0,0,0,0,0,0,0,0,0,0,0,0,0,0,0,0,0,0,0,0,0,0,0,0,0,0,0,0,0,0,0,1.1954,1.1954,0,1.1999,1.2,1.2,1.203,1.203,1.203,1.2031,1.2074,1.2075,1.2076,0,0,0,0,0,0,0,0,0,0,0,0,0,1.1889,1.189,1.1954,1.1954,1.1955,1.1999,1.2,1.2,1.203,1.203,1.203,1.2031,1.2074,1.2075,1.2076,0,0,0,0,0,0,0,0,0,0,0,0,0,1.1924,1.189,1.1953,1.1975,1.1977,1.1999,1.2,1.2,1.203,1.203,1.2031,1.2031,1.2073,1.2075,1.2076,1.2079,0,0,1.2081,1.2081,0,0,0,0,0,0,0,0,1.1922,1.1926,1.1971,1.1974,1.1976,1.2009,1.1993,1.2027,1.203,1.201,1.2031,1.2031,1.2052,1.2055,1.2063,1.2081,1.2083,1.2081,1.2082,1.2082,1.2083,0,0,0,0,0,0,0,1.1919,1.1924,1.1972,1.1972,1.1975,1.1981,1.1986,1.1999,1.2028,1.2012,1.2014,1.2019,1.2053,1.2061,1.2064,1.2083,1.2081,1.2082,1.2083,1.2083,1.2105,1.2105,0,0,0,0,0,0,1.1914,1.1922,1.197,1.1973,1.1949,1.1982,1.1988,1.1998,1.2029,1.2033,1.2019,1.202,1.2059,1.2062,1.2066,1.2071,1.2082,1.2083,1.2084,1.2105,1.2105,1.2105,0,0,0,0,0,0,1.1913,1.1918,1.1968,1.1948,1.1955,1.1983,1.1994,1.1999,1.2007,1.2034,1.2039,1.2022,1.2059,1.2064,1.2076,1.2073,1.2084,1.2085,1.2106,1.2105,1.2105,1.2081,0,0,0,0,0,0,1.1911,1.1917,1.192,1.1948,1.1956,1.1978,1.1994,1.2,1.201,1.2012,1.2038,1.2043,1.206,1.2073,1.2077,1.2075,1.2087,1.2106,1.2106,1.2105,1.2082,1.208,1.2078,0,0,0,0,0,1.1908,1.191,1.192,1.1925,1.196,1.1978,1.1982,1.2003,1.201,1.2012,1.2029,1.2042,1.2072,1.2074,1.2079,1.2077,1.2106,1.2106,1.2105,1.2083,1.208,1.2078,0,0,0,0,0,0,1.188,1.1915,1.1925,1.1937,1.1954,1.1983,1.1986,1.1999,1.2014,1.2016,1.204,1.2045,1.2054,1.2067,1.2068,1.2081,1.2091,1.2091,1.2073,1.207,1.2068,1.2065,1.2088,0,0,0,0,0,1.1875,1.1888,1.1917,1.1925,1.1933,1.1958,1.1967,1.1981,1.2,1.2007,1.2025,1.2042,1.2055,1.2063,1.2077,1.2084,1.2089,1.2085,1.2083,1.2081,1.2081,1.2085,1.2083,1.2103,1.2103,1.2103,0,0,1.1865,1.1886,1.1892,1.192,1.1935,1.1947,1.1964,1.1976,1.1985,1.2008,1.2021,1.2034,1.2055,1.2064,1.2069,1.2074,1.2076,1.208,1.2078,1.2079,1.2084,1.2082,1.208,1.2102,1.2102,1.2102,0,0,1.1853,1.187,1.1879,1.1894,1.1917,1.1933,1.1935,1.1962,1.1972,1.1985,1.2003,1.2013,1.2036,1.2049,1.2059,1.2051,1.2064,1.2055,1.2043,1.2047,1.2046,1.2044,1.2041,1.204,1.2055,1.2055,1.2055,0,1.1838,1.1858,1.1881,1.1892,1.1903,1.1926,1.1933,1.1946,1.1972,1.1979,1.1985,1.2014,1.2029,1.2041,1.2039,1.2047,1.2049,1.2052,1.2044,1.2043,1.2042,1.2039,1.2038,1.2053,1.2054,1.2054,1.2054,0,1.1837,1.1851,1.1854,1.188,1.1891,1.19,1.1923,1.1932,1.1945,1.196,1.1973,1.1992,1.2009,1.2013,1.2026,1.2027,1.203,1.204,1.205,1.2039,1.2037,1.2036,1.2052,1.2052,1.2052,1.2053,0,0,1.1809,1.1847,1.1848,1.186,1.1887,1.1897,1.1907,1.1925,1.1932,1.1948,1.1957,1.1975,1.1984,1.1995,1.2009,1.2012,1.2005,1.2022,1.2023,1.2018,1.2007,1.1999,1.1998,1.2013,1.2013,1.2013,1.2005,0,1.1801,1.1821,1.1842,1.1854,1.1866,1.1888,1.1896,1.1913,1.1927,1.1938,1.1954,1.1967,1.1978,1.1985,1.1989,1.2005,1.2003,1.2006,1.202,1.202,1.2014,1.1997,1.1989,1.1981,1.2004,1.2004,1.2004,0,1.1795,1.1812,1.1825,1.1851,1.1857,1.1864,1.1882,1.1893,1.1912,1.1922,1.1934,1.195,1.196,1.1969,1.1982,1.1984,1.1991,1.1999,1.2,1.2002,1.2012,1.1998,1.1979,1.1977,1.2003,1.2003,1.2003,0,1.1772,1.1798,1.181,1.1819,1.185,1.1854,1.1866,1.1886,1.1895,1.1911,1.1917,1.1933,1.1942,1.1953,1.1972,1.1977,1.1983,1.1994,1.1991,1.199,1.1991,1.1991,1.1972,1.1996,1.1996,1.1996,1.1996,0,1.1762,1.1769,1.1801,1.1808,1.1816,1.1839,1.1846,1.1861,1.1878,1.1887,1.1906,1.1914,1.1938,1.1949,1.1963,1.1972,1.1975,1.1983,1.1987,1.1982,1.1981,1.1986,1.1987,1.1995,1.1996,1.1996,1.1996,0,1.1738,1.176,1.1774,1.1801,1.1808,1.1813,1.1836,1.1843,1.1859,1.187,1.1874,1.1898,1.1911,1.1931,1.195,1.1959,1.1966,1.1972,1.196,1.1962,1.1958,1.1958,1.1942,1.1941,1.1965,1.1965,1.1965,0,1.173,1.1736,1.1765,1.1773,1.1785,1.1798,1.1808,1.183,1.1839,1.1861,1.1865,1.188,1.1894,1.1914,1.1932,1.1946,1.1953,1.1946,1.1955,1.1949,1.1952,1.1952,1.1952,1.1944,1.1944,1.1943,1.1943,0,1.1713,1.1723,1.1737,1.1755,1.1767,1.1782,1.1797,1.1803,1.1828,1.1837,1.1852,1.1862,1.1882,1.1896,1.1913,1.1924,1.1938,1.194,1.194,1.1935,1.1928,1.1931,1.1954,1.1941,1.1941,1.1941,1.1941,1.1941,1.1697,1.1703,1.1724,1.1739,1.1754,1.1768,1.1776,1.1792,1.1805,1.1823,1.1835,1.1849,1.1867,1.1891,1.1902,1.1912,1.1917,1.1917,1.1918,1.1917,1.1915,1.1926,1.1915,1.1915,1.1915,1.1915,1.1915,0,1.168,1.1695,1.1709,1.173,1.1742,1.1754,1.1772,1.178,1.1793,1.1809,1.1821,1.1837,1.1851,1.187,1.1885,1.189,1.1896,1.1893,1.1893,1.1895,1.1909,1.1908,1.1887,1.1887,1.1887,1.1887,1.1887,1.1887,1.1673,1.1685,1.1697,1.1716,1.173,1.1744,1.1753,1.1766,1.1779,1.1796,1.1808,1.1821,1.1838,1.1854,1.1867,1.1872,1.1877,1.1872,1.1878,1.1892,1.1894,1.1896,1.1895,1.1872,1.1872,1.1863,1.1863,1.1863]}]]